EW7714 Weather Reports


time (UTC)temp
F
wind
direction
speed
knots
gust
knots
rain 1hr
in
rain 24hr
in
rain mn
in
humidity
%
barometer
mb
20260506061604 69 207 1.7 3.5 0.00 0.00 0.00 94 1012.4
20260506061000 69 221 0.9 3.5 0.00 0.00 0.00 94 1012.6
20260506051006 68 190 0.9 1.7 0.00 0.00 0.00 93 1013.1
20260506050103 69 190 0.0 2.6 0.00 0.00 0.00 93 1013.0
20260506045005 69 192 0.0 2.6 0.00 0.00 0.00 92 1013.2
20260506044613 69 190 0.0 1.7 0.00 0.00 0.00 92 1013.1
20260506044005 69 190 0.0 2.6 0.00 0.00 0.00 92 1013.2
20260506043059 69 190 0.0 4.3 0.00 0.00 0.00 92 1013.0
20260506043004 69 190 0.9 4.3 0.00 0.00 0.00 92 1013.2
20260506042005 69 224 0.0 2.6 0.00 0.00 0.00 92 1013.3
20260506041609 69 224 0.0 2.6 0.00 0.00 0.00 92 1013.1
20260506040001 69 141 0.0 2.6 0.00 0.00 0.00 91 1013.3
20260506034608 69 139 0.0 2.6 0.00 0.00 0.00 91 1013.3
20260506034004 69 139 0.0 2.6 0.00 0.00 0.00 91 1013.5
20260506033059 69 138 0.0 1.7 0.00 0.00 0.00 90 1013.5
20260506033006 69 115 0.0 1.7 0.00 0.00 0.00 90 1013.7
20260506032006 69 115 0.0 1.7 0.00 0.00 0.00 89 1013.6
20260506031604 69 115 0.0 1.7 0.00 0.00 0.00 89 1013.6
20260506031005 69 115 0.0 0.9 0.00 0.00 0.00 89 1013.8
20260506030100 69 115 0.0 0.9 0.00 0.00 0.00 88 1013.6
20260506030005 69 115 0.0 0.9 0.00 0.00 0.00 89 1013.7
20260506025005 70 115 0.0 2.6 0.00 0.00 0.00 88 1013.6
20260506024613 70 115 0.0 2.6 0.00 0.00 0.00 88 1013.5
20260506024004 70 114 0.0 1.7 0.00 0.00 0.00 87 1013.6
20260506023100 70 114 0.0 1.7 0.00 0.00 0.00 87 1013.5
20260506023005 70 113 0.9 1.7 0.00 0.00 0.00 87 1013.6
20260506022005 70 105 0.9 3.5 0.00 0.00 0.00 86 1013.4
20260506021600 70 180 0.0 2.6 0.00 0.00 0.00 86 1013.1
20260506021005 71 171 0.9 3.5 0.00 0.00 0.00 86 1013.1
20260506020123 71 194 0.0 1.7 0.00 0.00 0.00 86 1013.0
20260506020005 71 194 0.9 3.5 0.00 0.00 0.00 86 1013.1
20260506015005 71 195 0.0 2.6 0.00 0.00 0.00 85 1013.2
20260506014600 71 195 0.0 1.7 0.00 0.00 0.00 85 1013.0
20260506014005 71 196 0.9 3.5 0.00 0.00 0.00 85 1013.3
20260506013059 71 198 0.0 2.6 0.00 0.00 0.00 84 1013.1
20260506013005 71 198 0.9 2.6 0.00 0.00 0.00 84 1013.3
20260506012005 72 198 0.9 2.6 0.00 0.00 0.00 84 1013.4
20260506011601 72 198 0.0 2.6 0.00 0.00 0.00 84 1013.2
20260506011004 72 202 0.9 2.6 0.00 0.00 0.00 83 1013.3
20260506010103 72 186 0.0 3.5 0.00 0.00 0.00 83 1013.0
20260506010006 72 186 0.9 3.5 0.00 0.00 0.00 83 1013.2
20260506010002 72 186 0.0 3.5 0.00 0.00 0.00 83 1013.0
20260506005005 72 187 0.9 3.5 0.00 0.00 0.00 82 1013.0
20260506004600 72 218 0.0 2.6 0.00 0.00 0.00 82 1012.9
20260506004004 73 216 0.9 3.5 0.00 0.00 0.00 82 1013.0
20260506003100 73 229 0.0 2.6 0.00 0.00 0.00 81 1012.9
20260506003005 73 229 0.9 2.6 0.00 0.00 0.00 81 1013.0
20260506002004 73 229 1.7 3.5 0.00 0.00 0.00 80 1013.0
20260506001607 73 228 0.9 5.2 0.00 0.00 0.00 80 1012.8
20260506001004 73 162 1.7 5.2 0.00 0.00 0.00 80 1012.9
20260506000124 74 170 2.6 7.0 0.00 0.00 0.00 79 1012.8
20260506000005 74 175 1.7 7.0 0.00 0.00 0.00 79 1012.8
20260505235005 74 146 1.7 6.1 0.00 0.00 0.00 78 1012.7
20260505234616 74 192 0.9 7.0 0.00 0.00 0.00 78 1012.7
20260505234005 74 256 1.7 4.3 0.00 0.00 0.00 77 1013.0
20260505233059 75 217 0.9 5.2 0.00 0.00 0.00 76 1012.8
20260505233005 75 217 2.6 5.2 0.00 0.00 0.00 76 1012.9
20260505232004 75 195 2.6 8.7 0.00 0.00 0.00 75 1012.8
20260505231601 75 286 1.7 7.8 0.00 0.00 0.00 75 1012.7
20260505231005 75 162 1.7 5.2 0.00 0.00 0.00 74 1012.9
20260505230059 75 229 2.6 6.1 0.00 0.00 0.00 73 1012.5
20260505230018 75 219 1.7 7.0 0.00 0.00 0.00 73 1012.5
20260505230004 75 219 2.6 7.0 0.00 0.00 0.00 72 1012.7
20260505224559 76 234 1.7 4.3 0.00 0.00 0.00 71 1012.7
20260505224004 77 238 2.6 7.8 0.00 0.00 0.00 71 1012.7
20260505223105 77 142 1.7 10.4 0.00 0.00 0.00 69 1012.6
20260505223002 77 171 3.5 10.4 0.00 0.00 0.00 69 1012.7
20260505222003 77 185 2.6 7.8 0.00 0.00 0.00 68 1012.6
20260505221602 77 176 2.6 7.0 0.00 0.00 0.00 69 1012.5
20260505221005 77 172 2.6 10.4 0.00 0.00 0.00 68 1012.8
20260505220108 78 177 1.7 7.8 0.00 0.00 0.00 68 1012.5
20260505220007 78 250 2.6 7.8 0.00 0.00 0.00 68 1012.6
20260505220002 78 250 1.7 7.8 0.00 0.00 0.00 68 1012.5
20260505215005 78 176 1.7 6.1 0.00 0.00 0.00 68 1012.5
20260505214612 78 179 1.7 7.0 0.00 0.00 0.00 66 1012.3
20260505214005 79 242 2.6 8.7 0.00 0.00 0.00 67 1012.5
20260505213100 79 155 2.6 9.6 0.00 0.00 0.00 65 1012.4
20260505213005 79 213 2.6 9.6 0.00 0.00 0.00 65 1012.5
20260505212004 80 63 2.6 9.6 0.00 0.00 0.00 65 1012.4
20260505211636 80 247 2.6 9.6 0.00 0.00 0.00 65 1012.3
20260505211004 80 192 3.5 8.7 0.00 0.00 0.00 65 1012.4
20260505210100 80 216 3.5 8.7 0.00 0.00 0.00 64 1012.3
20260505210005 80 170 2.6 8.7 0.00 0.00 0.00 65 1012.4
20260505205004 80 88 3.5 8.7 0.00 0.00 0.00 64 1012.5
20260505204613 80 125 3.5 10.4 0.00 0.00 0.00 63 1012.4
20260505204005 80 124 2.6 10.4 0.00 0.00 0.00 64 1012.7
20260505203100 81 136 0.9 6.1 0.00 0.00 0.00 64 1012.6
20260505201600 81 169 2.6 8.7 0.00 0.00 0.00 62 1012.8
20260505201005 81 199 2.6 9.6 0.00 0.00 0.00 62 1013.1
20260505200059 80 245 1.7 6.1 0.00 0.00 0.00 64 1013.1
20260505200006 80 243 2.6 7.8 0.00 0.00 0.00 65 1013.3
20260505200002 80 243 2.6 7.8 0.00 0.00 0.00 65 1013.1
20260505195006 80 231 2.6 7.0 0.00 0.00 0.00 64 1013.5
20260505194600 80 221 1.7 7.0 0.00 0.00 0.00 65 1013.4
20260505194005 80 244 3.5 9.6 0.00 0.00 0.00 63 1013.5
20260505193100 80 202 2.6 8.7 0.00 0.00 0.00 64 1013.4
20260505193005 80 206 3.5 8.7 0.00 0.00 0.00 64 1013.6
20260505191605 79 97 1.7 9.6 0.00 0.00 0.00 64 1013.5
20260505191003 80 218 1.7 6.1 0.00 0.00 0.00 64 1013.7
20260505190111 80 120 1.7 8.7 0.00 0.00 0.00 61 1013.5
20260505190004 80 119 3.5 8.7 0.00 0.00 0.00 61 1013.6
20260505185004 80 150 3.5 7.8 0.00 0.00 0.00 62 1013.8
20260505184558 80 167 1.7 9.6 0.00 0.00 0.00 63 1013.6
20260505183059 79 244 1.7 6.1 0.00 0.00 0.00 67 1013.7
20260505183005 79 251 2.6 8.7 0.00 0.00 0.00 65 1013.9
20260505182004 79 212 2.6 7.8 0.00 0.00 0.00 65 1013.9
20260505181641 80 290 1.7 8.7 0.00 0.00 0.00 64 1013.8
20260505181004 80 217 2.6 8.7 0.00 0.00 0.00 63 1014.1
20260505180106 79 216 2.6 8.7 0.00 0.00 0.00 67 1014.0
20260505180004 79 182 2.6 8.7 0.00 0.00 0.00 65 1014.1
20260505175004 78 206 2.6 10.4 0.00 0.00 0.00 65 1014.1
20260505174558 79 128 2.6 6.1 0.00 0.00 0.00 66 1013.8
20260505174004 78 250 2.6 8.7 0.00 0.00 0.00 68 1014.0
20260505173058 78 271 2.6 10.4 0.00 0.00 0.00 66 1014.1
20260505172005 78 230 3.5 7.0 0.00 0.00 0.00 69 1014.2
20260505171604 77 132 3.5 9.6 0.00 0.00 0.00 68 1014.2
20260505171004 77 195 3.5 9.6 0.00 0.00 0.00 67 1014.3
20260505170059 78 131 1.7 9.6 0.00 0.00 0.00 67 1014.1
20260505170007 78 128 2.6 9.6 0.00 0.00 0.00 67 1014.3
20260505170002 78 128 2.6 9.6 0.00 0.00 0.00 67 1014.2
20260505165005 77 196 2.6 7.8 0.00 0.00 0.00 68 1014.2
20260505164558 77 182 0.9 8.7 0.00 0.00 0.00 68 1014.2
20260505164004 78 201 2.6 7.8 0.00 0.00 0.00 67 1014.2
20260505163058 77 240 1.7 7.8 0.00 0.00 0.00 69 1014.2
20260505162001 77 222 2.6 12.2 0.00 0.00 0.00 69 1014.2
20260505161558 77 288 1.7 12.2 0.00 0.00 0.00 68 1014.1
20260505153100 75 211 2.6 7.0 0.00 0.00 0.00 70 1014.1
20260505153006 75 167 3.5 7.0 0.00 0.00 0.00 69 1014.2
20260505152005 75 180 2.6 7.8 0.00 0.00 0.00 70 1014.2
20260505151605 75 213 1.7 7.8 0.00 0.00 0.00 72 1014.1
20260505151005 74 238 3.5 7.8 0.00 0.00 0.00 73 1014.1
20260505140108 70 219 0.0 2.6 0.00 0.00 0.00 82 1014.2
20260505124558 58 164 0.0 0.0 0.00 0.00 0.00 98 1013.9
20260505124000 57 164 0.0 0.0 0.00 0.00 0.00 98 1014.0
20260505123101 56 164 0.0 0.0 0.00 0.00 0.00 97 1013.9
20260505123000 56 164 0.0 0.0 0.00 0.00 0.00 97 1014.0
20260505122000 54 164 0.0 0.0 0.00 0.00 0.00 97 1013.8
20260505121558 54 164 0.0 0.0 0.00 0.00 0.00 97 1013.7
20260505121000 54 164 0.0 0.0 0.00 0.00 0.00 96 1013.8
20260505120121 53 164 0.0 0.0 0.00 0.00 0.00 96 1013.7
20260505120010 53 164 0.0 0.0 0.00 0.00 0.00 96 1013.7
20260505115000 53 164 0.0 0.0 0.00 0.00 0.00 96 1013.6
20260505114558 53 164 0.0 0.0 0.00 0.00 0.00 96 1013.5
20260505114003 53 164 0.0 0.0 0.00 0.00 0.00 95 1013.5
20260505113057 53 164 0.0 0.0 0.00 0.00 0.00 96 1013.4
20260505112959 53 164 0.0 0.0 0.00 0.00 0.00 96 1013.5
20260505112000 52 164 0.0 0.0 0.00 0.00 0.00 95 1013.3
20260505111557 52 164 0.0 0.0 0.00 0.00 0.00 95 1013.4
20260505110959 52 165 0.0 0.0 0.00 0.00 0.00 95 1013.4
20260505110112 52 165 0.0 0.0 0.00 0.00 0.00 95 1013.1
20260505102002 52 165 0.0 0.0 0.00 0.00 0.00 95 1013.1
20260505101604 52 165 0.0 0.0 0.00 0.00 0.00 95 1013.0
20260505101004 52 165 0.0 0.0 0.00 0.00 0.00 95 1013.1
20260505100100 52 165 0.0 0.0 0.00 0.00 0.00 94 1013.0
20260505100000 52 165 0.0 0.0 0.00 0.00 0.00 94 1013.1
20260505095000 53 165 0.0 0.0 0.00 0.00 0.00 95 1013.2
20260505094558 53 165 0.0 0.0 0.00 0.00 0.00 95 1013.1
20260505094002 53 165 0.0 0.0 0.00 0.00 0.00 95 1013.1
20260505093058 53 165 0.0 0.0 0.00 0.00 0.00 94 1012.9
20260505093005 52 165 0.0 0.0 0.00 0.00 0.00 94 1013.0
20260505092004 53 165 0.0 0.0 0.00 0.00 0.00 95 1013.0
20260505091600 53 165 0.0 0.0 0.00 0.00 0.00 95 1013.0
20260505091005 53 165 0.0 0.0 0.00 0.00 0.00 95 1013.1
20260505090059 53 165 0.0 0.0 0.00 0.00 0.00 95 1012.9
20260505085959 53 165 0.0 0.0 0.00 0.00 0.00 95 1013.1
20260505085000 53 165 0.0 0.0 0.00 0.00 0.00 94 1013.1
20260505084604 53 165 0.0 0.0 0.00 0.00 0.00 95 1013.0
20260505084000 53 165 0.0 0.0 0.00 0.00 0.00 94 1013.2
20260505083110 53 165 0.0 0.0 0.00 0.00 0.00 94 1013.0
20260505083000 53 165 0.0 0.0 0.00 0.00 0.00 94 1013.1
20260505082000 53 165 0.0 0.0 0.00 0.00 0.00 94 1013.1
20260505081600 53 165 0.0 0.0 0.00 0.00 0.00 94 1012.9
20260505081003 53 165 0.0 0.0 0.00 0.00 0.00 94 1013.0
20260505080105 53 165 0.0 0.0 0.00 0.00 0.00 94 1013.0
20260505075005 53 165 0.0 0.0 0.00 0.00 0.00 94 1013.2
20260505074558 53 165 0.0 0.0 0.00 0.00 0.00 93 1013.1
20260505074000 53 165 0.0 0.0 0.00 0.00 0.00 93 1013.2
20260505073102 54 165 0.0 0.0 0.00 0.00 0.00 93 1013.3
20260505073004 54 165 0.0 0.0 0.00 0.00 0.00 93 1013.4
20260505072000 54 165 0.0 0.0 0.00 0.00 0.00 93 1013.2
20260505071558 54 165 0.0 0.0 0.00 0.00 0.00 93 1013.0
20260505071004 54 165 0.0 0.0 0.00 0.00 0.00 93 1013.2